Date String (YYYY-MM-DD hh:mm:ss) UTC,Instrument flags,Ambient pressure (hPa),Sample flow (lpm),Bypass flow (lpm),Sample temperature (°C),Ambient temperature (°C),ASC tube jacket temperature (°C),LED temperature (°C),Box temperature (°C),Sample RH (%),Span deviation,Mass concentration (μg/m³),Mass concentration (μg/m³),Mass concentration (μg/m³)
DateTimeUTC,F1_M11,P_M11,Q1_M11,Q2_M11,T1_M11,T2_M11,T3_M11,T4_M11,T5_M11,U1_M11,ZSPAN_M11,X0_M11,X2_M11,X1_M11
2021-11-11 13:00:00,,0827.7,5.01,0.00,22.5,21.7,00.0,31.6,24.2,13.0,0000.0,0008.04,0003.82,0003.34
2021-11-11 13:01:00,,0827.7,4.99,0.00,22.5,21.7,00.0,31.6,24.3,13.0,0000.0,0008.42,0003.83,0003.35
2021-11-11 13:02:00,,0827.6,5.01,0.00,22.5,21.7,00.0,31.6,24.2,12.9,0000.0,0008.33,0003.80,0003.33
2021-11-11 13:03:00,,0827.6,4.99,0.00,22.5,21.7,00.0,31.6,24.2,12.9,0000.0,0008.37,0003.83,0003.34
2021-11-11 13:04:00,,0827.5,4.98,0.00,22.5,21.7,00.0,31.6,24.3,12.9,0000.0,0008.20,0003.84,0003.33
2021-11-11 13:05:00,,0827.5,5.01,0.00,22.5,21.7,00.0,31.5,24.3,12.9,0000.0,0007.85,0003.86,0003.33
2021-11-11 13:06:00,,0827.6,5.01,0.00,22.5,21.7,00.0,31.5,24.3,13.0,0000.0,0007.90,0003.88,0003.34
2021-11-11 13:07:00,,0827.5,4.98,0.00,22.5,21.7,00.0,31.5,24.2,13.0,0000.0,0007.91,0003.88,0003.34
2021-11-11 13:08:00,,0827.5,5.01,0.00,22.5,21.6,00.0,31.5,24.2,13.0,0000.0,0008.52,0003.86,0003.35
2021-11-11 13:09:00,,0827.6,5.01,0.00,22.5,21.6,00.0,31.5,24.2,13.0,0000.0,0008.82,0003.85,0003.35
2021-11-11 13:10:00,,0827.7,4.99,0.00,22.5,21.6,00.0,31.5,24.2,13.0,0000.0,0008.85,0003.83,0003.35
2021-11-11 13:11:00,,0827.6,5.00,0.00,22.5,21.6,00.0,31.5,24.2,13.0,0000.0,0009.75,0003.83,0003.35
2021-11-11 13:12:00,,0827.5,5.00,0.00,22.5,21.7,00.0,31.5,24.2,13.0,0000.0,0009.38,0003.86,0003.35
2021-11-11 13:13:00,,0827.5,4.99,0.00,22.5,22.2,00.0,31.6,24.4,12.9,0000.0,0009.43,0003.87,0003.35
2021-11-11 13:14:00,,0827.5,5.01,0.00,22.6,22.9,00.0,31.6,24.6,12.9,0000.0,0009.45,0003.83,0003.34
2021-11-11 13:15:00,,0827.7,4.99,0.00,22.7,23.0,00.0,31.6,24.7,12.8,0000.0,0009.48,0003.83,0003.34
2021-11-11 13:16:00,,0827.6,5.00,0.00,22.7,22.9,00.0,31.6,24.7,12.8,0000.0,0009.71,0003.79,0003.34
2021-11-11 13:17:00,,0827.7,5.01,0.00,22.7,22.7,00.0,31.6,24.7,12.7,0000.0,0009.75,0003.77,0003.34
2021-11-11 13:18:00,,0827.7,5.01,0.00,22.7,22.6,00.0,31.6,24.6,12.8,0000.0,0009.69,0003.78,0003.33
2021-11-11 13:19:00,,0827.6,4.99,0.00,22.7,22.4,00.0,31.7,24.6,12.8,0000.0,0009.30,0003.83,0003.34
2021-11-11 13:20:00,,0827.5,5.00,0.00,22.7,22.3,00.0,31.7,24.5,12.8,0000.0,0008.95,0003.84,0003.34
2021-11-11 13:21:00,,0827.5,5.00,0.00,22.7,22.2,00.0,31.7,24.5,12.9,0000.0,0009.42,0003.88,0003.34
2021-11-11 13:22:00,,0827.5,5.00,0.00,22.7,22.1,00.0,31.7,24.5,12.9,0000.0,0008.70,0003.91,0003.34
2021-11-11 13:23:00,,0827.5,5.00,0.00,22.7,22.1,00.0,31.7,24.5,12.9,0000.0,0008.37,0003.90,0003.34
2021-11-11 13:24:00,,0827.5,5.01,0.00,22.7,22.0,00.0,31.7,24.5,12.9,0000.0,0008.34,0003.92,0003.35
2021-11-11 13:25:00,,0827.6,4.99,0.00,22.7,22.0,00.0,31.7,24.4,12.8,0000.0,0008.22,0003.93,0003.36
2021-11-11 13:26:00,,0827.6,5.01,0.00,22.7,21.9,00.0,31.7,24.4,12.8,0000.0,0008.51,0003.93,0003.35
2021-11-11 13:27:00,,0827.6,5.00,0.00,22.7,21.9,00.0,31.7,24.4,12.8,0000.0,0008.64,0003.99,0003.36
2021-11-11 13:28:00,,0827.7,4.99,0.00,22.7,21.9,00.0,31.7,24.4,12.7,0000.0,0008.58,0004.04,0003.35
2021-11-11 13:29:00,,0827.7,5.01,0.00,22.6,21.9,00.0,31.7,24.4,12.6,0000.0,0008.56,0004.05,0003.34
2021-11-11 13:30:00,,0827.5,4.99,0.00,22.6,21.8,00.0,31.7,24.3,12.6,0000.0,0008.89,0004.05,0003.33
2021-11-11 13:31:00,,0827.5,5.01,0.00,22.6,21.8,00.0,31.6,24.3,12.8,0000.0,0009.56,0004.09,0003.31
2021-11-11 13:32:00,,0827.5,4.99,0.00,22.6,21.8,00.0,31.6,24.3,12.9,0000.0,0009.84,0004.12,0003.31
2021-11-11 13:33:00,,0827.6,5.00,0.00,22.6,21.7,00.0,31.6,24.3,13.0,0000.0,0010.21,0004.14,0003.30
2021-11-11 13:34:00,,0827.7,5.02,0.00,22.5,21.7,00.0,31.6,24.3,13.0,0000.0,0010.55,0004.18,0003.29
2021-11-11 13:35:00,,0827.8,5.00,0.00,22.5,21.7,00.0,31.6,24.2,12.9,0000.0,0010.85,0004.24,0003.28
2021-11-11 13:36:00,,0827.8,4.99,0.00,22.5,21.7,00.0,31.6,24.2,12.9,0000.0,0011.07,0004.30,0003.27
2021-11-11 13:37:00,,0827.6,5.01,0.00,22.5,21.6,00.0,31.6,24.2,13.0,0000.0,0010.97,0004.33,0003.26
2021-11-11 13:38:00,,0827.7,4.99,0.00,22.5,21.6,00.0,31.6,24.2,13.1,0000.0,0010.66,0004.30,0003.25
2021-11-11 13:39:00,,0827.7,5.01,0.00,22.5,21.6,00.0,31.6,24.2,13.1,0000.0,0011.36,0004.29,0003.25
2021-11-11 13:40:00,,0827.7,5.00,0.00,22.5,21.6,00.0,31.5,24.2,12.9,0000.0,0011.72,0004.32,0003.25
2021-11-11 13:41:00,,0827.7,5.00,0.00,22.4,21.6,00.0,31.5,24.1,12.9,0000.0,0011.61,0004.35,0003.24
2021-11-11 13:42:00,,0827.6,5.01,0.00,22.4,21.6,00.0,31.5,24.2,13.0,0000.0,0011.40,0004.29,0003.23
2021-11-11 13:43:00,,0827.5,5.00,0.00,22.4,21.6,00.0,31.5,24.1,13.0,0000.0,0010.60,0004.21,0003.21
2021-11-11 13:44:00,,0827.5,4.99,0.00,22.4,21.6,00.0,31.5,24.1,13.1,0000.0,0010.28,0004.14,0003.20
2021-11-11 13:45:00,,0827.6,5.01,0.00,22.4,21.9,00.0,31.5,24.2,13.1,0000.0,0010.65,0004.05,0003.18
2021-11-11 13:46:00,,0827.7,4.99,0.00,22.5,22.6,00.0,31.6,24.4,13.0,0000.0,0010.86,0003.94,0003.16
2021-11-11 13:47:00,,0827.7,5.00,0.00,22.6,23.1,00.0,31.6,24.6,12.8,0000.0,0010.78,0003.88,0003.14
2021-11-11 13:48:00,,0827.7,5.00,0.00,22.7,23.0,00.0,31.6,24.6,12.7,0000.0,0010.66,0003.84,0003.14
2021-11-11 13:49:00,,0827.7,5.01,0.00,22.7,22.8,00.0,31.6,24.6,12.5,0000.0,0011.13,0003.85,0003.15
2021-11-11 13:50:00,,0827.7,4.99,0.00,22.7,22.6,00.0,31.6,24.6,12.5,0000.0,0011.87,0003.87,0003.16
2021-11-11 13:51:00,,0827.7,4.99,0.00,22.7,22.5,00.0,31.6,24.5,12.6,0000.0,0011.52,0003.85,0003.15
2021-11-11 13:52:00,,0827.7,5.02,0.00,22.7,22.3,00.0,31.6,24.5,12.7,0000.0,0011.28,0003.80,0003.14
2021-11-11 13:53:00,,0827.7,4.99,0.00,22.7,22.2,00.0,31.6,24.5,12.9,0000.0,0011.01,0003.77,0003.14
2021-11-11 13:54:00,,0827.7,5.01,0.00,22.7,22.1,00.0,31.6,24.5,13.0,0000.0,0011.21,0003.76,0003.12
2021-11-11 13:55:00,,0827.7,4.99,0.00,22.7,22.1,00.0,31.6,24.5,13.0,0000.0,0011.06,0003.73,0003.11
2021-11-11 13:56:00,,0827.7,5.00,0.00,22.7,22.0,00.0,31.6,24.4,12.9,0000.0,0010.29,0003.74,0003.10
2021-11-11 13:57:00,,0827.7,5.01,0.00,22.6,22.0,00.0,31.6,24.4,12.9,0000.0,0009.57,0003.73,0003.10
2021-11-11 13:58:00,,0827.7,4.99,0.00,22.6,21.9,00.0,31.6,24.3,12.8,0000.0,0009.61,0003.75,0003.11
2021-11-11 13:59:00,,0827.7,4.99,0.00,22.6,21.9,00.0,31.6,24.3,12.9,0000.0,0009.89,0003.74,0003.10
